Terminal Aerodrome Forecast
Issued by NWS

Home | Current Version | Previous Version | Graphics & Text | Print | Product List | Glossary On
Versions: 1 2 3 4 5 6 7 8 9 10 11 12 13 14 15 16 17 18 19 20 21 22 23 24 25 26 27 28 29 30 31 32 33 34 35 36 37
000
FTUS43 KLOT 040234 AAB
TAFORD
TAF AMD
KORD 040234Z 0403/0506 16012KT P6SM VCSH SCT035 BKN080
     FM040400 17009KT P6SM SCT080 BKN250
     FM041000 22010KT 5SM -SHRA VCTS SCT020 OVC035CB
     FM041700 02010KT P6SM VCSH BKN015
     FM042000 03010KT P6SM SCT020
     FM050300 05007KT P6SM VCSH BKN040=

USA.gov is the U.S. government's official web portal to all federal, state and local government web resources and services.